[[{"header":{"parameterUnit":"m.s-1","parameterCategory":1,"la1":30.2991,"la2":30.254,"lo1":-89.0895,"lo2":-89.0444,"dy":0.0017,"dx":0.0017,"nx":28,"ny":28,"refTime":"2023-03-30T21:00:00:Z","depth":0,"parameterNumber":2,"parameterNumberName":"U-component_of_WINDS"},"data":[0,0,0,0,0,0,0,0,0,0,0,0,0,0,0,0,0,0,0,0,0,0,0,0,0,0,0,0,0,0,0,0,0,0,0,0,0,0,0,0,0,0,0,0,0,0,0,0,0,0,0,0,0,0,0,0,0,0,-4.3509,-4.351,0,-4.3626,-4.3628,-4.3629,-4.363,-4.3629,-4.3627,-4.3626,-4.3745,-4.375,-4.3754,0,0,0,0,0,0,0,0,0,0,0,0,0,-4.3286,-4.329,-4.3509,-4.351,-4.3512,-4.3626,-4.3628,-4.3629,-4.363,-4.3629,-4.3627,-4.3625,-4.3744,-4.3749,-4.3755,0,0,0,0,0,0,0,0,0,0,0,0,0,-4.3391,-4.3292,-4.3509,-4.3526,-4.3529,-4.3626,-4.3628,-4.363,-4.3631,-4.3629,-4.3626,-4.3624,-4.3742,-4.3749,-4.3755,-4.3842,0,0,-4.3776,-4.3779,0,0,0,0,0,0,0,0,-4.3385,-4.3399,-4.3522,-4.3525,-4.3528,-4.3611,-4.3593,-4.3701,-4.3631,-4.3592,-4.3626,-4.3623,-4.3702,-4.3712,-4.3739,-4.3848,-4.3853,-4.3777,-4.3781,-4.3784,-4.3786,0,0,0,0,0,0,0,-4.3378,-4.3394,-4.3555,-4.3524,-4.3528,-4.3528,-4.3541,-4.3613,-4.3658,-4.3595,-4.3596,-4.361,-4.3704,-4.3733,-4.3742,-4.3855,-4.3777,-4.3783,-4.3787,-4.379,-4.404,-4.4042,0,0,0,0,0,0,-4.3367,-4.3388,-4.3552,-4.3559,-4.345,-4.3534,-4.3548,-4.3587,-4.3658,-4.3666,-4.3611,-4.3609,-4.3722,-4.3734,-4.3746,-4.3852,-4.3784,-4.379,-4.3794,-4.4038,-4.4041,-4.4043,0,0,0,0,0,0,-4.3362,-4.3382,-4.3547,-4.3474,-4.3495,-4.354,-4.3584,-4.359,-4.3619,-4.367,-4.3678,-4.3633,-4.3721,-4.3737,-4.3818,-4.3856,-4.3793,-4.38,-4.4034,-4.4038,-4.4042,-4.4063,0,0,0,0,0,0,-4.3356,-4.338,-4.3413,-4.3474,-4.3499,-4.3617,-4.3586,-4.3594,-4.3631,-4.3629,-4.3692,-4.37,-4.372,-4.3808,-4.3825,-4.3864,-4.3805,-4.4031,-4.4036,-4.4041,-4.4059,-4.4067,-4.4074,0,0,0,0,0,-4.3348,-4.3414,-4.3415,-4.3434,-4.3541,-4.3619,-4.3633,-4.3655,-4.3634,-4.3668,-4.3701,-4.3698,-4.385,-4.3816,-4.3836,-4.3877,-4.4029,-4.4035,-4.404,-4.4056,-4.4066,-4.4074,0,0,0,0,0,0,-4.3356,-4.3423,-4.3424,-4.3512,-4.356,-4.3619,-4.3662,-4.3665,-4.3719,-4.3715,-4.374,-4.3755,-4.3835,-4.3865,-4.3827,-4.3965,-4.3937,-4.3947,-4.3942,-4.3952,-4.3959,-4.3949,-4.3811,0,0,0,0,0,-4.3368,-4.3426,-4.3481,-4.3554,-4.3578,-4.3616,-4.3651,-4.3664,-4.3714,-4.3734,-4.3773,-4.3821,-4.388,-4.3918,-4.3975,-4.4065,-4.4078,-4.4103,-4.411,-4.4116,-4.4124,-4.4173,-4.4184,-4.4062,-4.4062,-4.4062,0,0,-4.3393,-4.3437,-4.3472,-4.3556,-4.3595,-4.3653,-4.3633,-4.3696,-4.374,-4.3744,-4.3822,-4.3853,-4.3909,-4.3995,-4.4035,-4.4022,-4.4161,-4.4124,-4.4128,-4.4132,-4.418,-4.4191,-4.4201,-4.4066,-4.4065,-4.4065,0,0,-4.3469,-4.3508,-4.3573,-4.3612,-4.3671,-4.3696,-4.3712,-4.3771,-4.3791,-4.3871,-4.3875,-4.3928,-4.4029,-4.4069,-4.4102,-4.4195,-4.4194,-4.4213,-4.425,-4.4298,-4.4308,-4.4316,-4.4348,-4.4359,-4.4221,-4.4221,-4.4221,0,-4.3492,-4.3581,-4.3605,-4.3669,-4.3705,-4.3713,-4.3778,-4.3815,-4.389,-4.3915,-4.39,-4.4027,-4.4065,-4.416,-4.4183,-4.421,-4.4228,-4.4204,-4.4305,-4.4313,-4.4322,-4.4352,-4.4364,-4.4223,-4.4222,-4.4222,-4.4222,0,-4.3607,-4.3669,-4.3714,-4.3785,-4.3828,-4.3892,-4.3925,-4.3966,-4.3976,-4.4003,-4.4084,-4.4131,-4.4197,-4.4222,-4.4232,-4.4319,-4.4309,-4.4299,-4.4271,-4.4335,-4.4363,-4.4376,-4.4225,-4.4224,-4.4224,-4.4223,0,0,-4.3688,-4.3773,-4.3789,-4.3822,-4.3888,-4.3936,-4.4001,-4.4066,-4.4099,-4.4152,-4.4206,-4.4292,-4.4283,-4.4321,-4.4337,-4.4379,-4.4448,-4.4364,-4.4366,-4.4377,-4.4545,-4.455,-4.4563,-4.4449,-4.4452,-4.4454,-4.4539,0,-4.3769,-4.3884,-4.3908,-4.4007,-4.4064,-4.4073,-4.4129,-4.4176,-4.4204,-4.4256,-4.4287,-4.4346,-4.4332,-4.4355,-4.4397,-4.443,-4.4482,-4.4425,-4.4499,-4.4501,-4.4482,-4.4578,-4.4584,-4.4662,-4.4551,-4.4553,-4.4554,0,-4.3878,-4.3933,-4.4037,-4.4096,-4.4121,-4.4171,-4.4233,-4.4283,-4.4337,-4.4354,-4.4397,-4.4409,-4.4476,-4.4447,-4.454,-4.4501,-4.4534,-4.4555,-4.4559,-4.4564,-4.453,-4.4584,-4.4688,-4.4699,-4.4573,-4.4571,-4.457,0,-4.3925,-4.4025,-4.41,-4.4128,-4.4199,-4.4234,-4.4265,-4.4317,-4.4354,-4.4409,-4.4433,-4.4495,-4.4529,-4.4576,-4.4604,-4.4581,-4.4695,-4.4668,-4.471,-4.471,-4.4732,-4.4729,-4.484,-4.4757,-4.4756,-4.4756,-4.4756,0,-4.4012,-4.4075,-4.4122,-4.4167,-4.4239,-4.4267,-4.4337,-4.4368,-4.4414,-4.4466,-4.4479,-4.4528,-4.4562,-4.4616,-4.4639,-4.4712,-4.4728,-4.4743,-4.4748,-4.474,-4.4738,-4.476,-4.4754,-4.4759,-4.4759,-4.4758,-4.4757,0,-4.4074,-4.4108,-4.4191,-4.4252,-4.4269,-4.4318,-4.437,-4.4416,-4.4444,-4.451,-4.4527,-4.4572,-4.4636,-4.467,-4.475,-4.4765,-4.4847,-4.485,-4.4828,-4.483,-4.4869,-4.4864,-4.4995,-4.5013,-4.492,-4.4921,-4.4922,0,-4.4126,-4.4175,-4.4241,-4.4277,-4.4309,-4.4367,-4.4406,-4.4436,-4.4476,-4.4541,-4.4578,-4.4643,-4.4696,-4.4799,-4.4838,-4.49,-4.4903,-4.4945,-4.4912,-4.4903,-4.4901,-4.4897,-4.4901,-4.4949,-4.495,-4.4951,-4.4952,0,-4.4214,-4.4228,-4.4284,-4.4345,-4.4391,-4.4441,-4.449,-4.4519,-4.4557,-4.4602,-4.4667,-4.4709,-4.4791,-4.4855,-4.492,-4.4952,-4.4958,-4.4962,-4.4975,-4.4966,-4.4951,-4.4958,-4.4842,-4.4958,-4.4957,-4.4957,-4.4957,-4.4956,-4.4271,-4.4315,-4.4368,-4.443,-4.447,-4.4516,-4.4561,-4.4596,-4.4651,-4.472,-4.4735,-4.4804,-4.4858,-4.4945,-4.498,-4.5035,-4.5026,-4.5045,-4.5049,-4.5053,-4.5053,-4.4945,-4.5047,-4.5047,-4.5047,-4.5047,-4.5047,0,-4.4358,-4.4393,-4.445,-4.4518,-4.4566,-4.4569,-4.4624,-4.4664,-4.4725,-4.4774,-4.4826,-4.4902,-4.4965,-4.501,-4.5074,-4.5109,-4.5113,-4.5124,-4.5121,-4.5128,-4.5058,-4.504,-4.512,-4.512,-4.512,-4.512,-4.512,-4.512,-4.4409,-4.4482,-4.4503,-4.4597,-4.4632,-4.47,-4.4731,-4.4774,-4.4813,-4.4897,-4.4949,-4.4978,-4.5026,-4.5094,-4.5151,-4.5163,-4.5185,-4.5196,-4.5207,-4.5141,-4.5133,-4.5125,-4.5108,-4.5201,-4.5201,-4.5272,-4.5273,-4.5273]},{"header":{"parameterUnit":"m.s-1","parameterCategory":1,"la1":30.2991,"la2":30.254,"lo1":-89.0895,"lo2":-89.0444,"dy":0.0017,"dx":0.0017,"nx":28,"ny":28,"refTime":"2023-03-30T21:00:00:Z","depth":0,"parameterNumber":3,"parameterNumberName":"V-component_of_WINDS"},"data":[0,0,0,0,0,0,0,0,0,0,0,0,0,0,0,0,0,0,0,0,0,0,0,0,0,0,0,0,0,0,0,0,0,0,0,0,0,0,0,0,0,0,0,0,0,0,0,0,0,0,0,0,0,0,0,0,0,0,4.1188,4.1189,0,4.1291,4.1292,4.1293,4.1296,4.1295,4.1293,4.1292,4.1395,4.1398,4.1402,0,0,0,0,0,0,0,0,0,0,0,0,0,4.0991,4.0994,4.1187,4.1189,4.119,4.1291,4.1292,4.1294,4.1296,4.1294,4.1293,4.1292,4.1393,4.1398,4.1403,0,0,0,0,0,0,0,0,0,0,0,0,0,4.1083,4.0995,4.1187,4.1203,4.1206,4.129,4.1292,4.1294,4.1296,4.1294,4.1293,4.1291,4.1392,4.1398,4.1403,4.1478,0,0,4.1421,4.1424,0,0,0,0,0,0,0,0,4.1078,4.109,4.12,4.1203,4.1205,4.1279,4.126,4.1355,4.1297,4.1262,4.1292,4.129,4.1357,4.1366,4.1389,4.1482,4.1487,4.1422,4.1425,4.1428,4.143,0,0,0,0,0,0,0,4.1072,4.1086,4.1228,4.1201,4.1205,4.1205,4.1216,4.1278,4.1319,4.1265,4.1265,4.1278,4.1359,4.1384,4.1392,4.1488,4.1422,4.1427,4.143,4.1433,4.165,4.1652,0,0,0,0,0,0,4.1062,4.1081,4.1225,4.1231,4.1136,4.121,4.1223,4.1257,4.1318,4.1326,4.1279,4.1277,4.1375,4.1385,4.1395,4.1488,4.1428,4.1433,4.1437,4.1647,4.165,4.1652,0,0,0,0,0,0,4.1058,4.1075,4.1221,4.1156,4.1175,4.1216,4.1254,4.126,4.1285,4.1329,4.1336,4.1298,4.1374,4.1387,4.1458,4.1492,4.1436,4.1441,4.1645,4.1648,4.1651,4.1673,0,0,0,0,0,0,4.1052,4.1074,4.1102,4.1157,4.1178,4.1282,4.1256,4.1263,4.1296,4.1294,4.1348,4.1355,4.1373,4.1449,4.1464,4.1499,4.1446,4.1642,4.1646,4.165,4.1669,4.1676,4.1682,0,0,0,0,0,4.1045,4.1103,4.1104,4.1121,4.1215,4.1284,4.1296,4.1316,4.1298,4.1328,4.1356,4.1354,4.1485,4.1456,4.1473,4.151,4.164,4.1645,4.165,4.1666,4.1675,4.1682,0,0,0,0,0,0,4.1049,4.111,4.1112,4.1189,4.1232,4.1284,4.1322,4.1324,4.1372,4.1369,4.1391,4.1403,4.1474,4.1499,4.1465,4.1586,4.156,4.1569,4.1567,4.1576,4.1582,4.1575,4.1451,0,0,0,0,0,4.106,4.1111,4.1161,4.1224,4.1246,4.128,4.1311,4.1323,4.1367,4.1385,4.1418,4.1461,4.1512,4.1545,4.1595,4.1673,4.1685,4.1706,4.1713,4.1718,4.1726,4.1771,4.1781,4.1669,4.1669,4.1669,0,0,4.1081,4.112,4.1151,4.1226,4.1261,4.1313,4.1295,4.1351,4.139,4.1393,4.1463,4.1489,4.1538,4.1613,4.1648,4.1636,4.176,4.1725,4.1729,4.1733,4.1777,4.1788,4.1797,4.1672,4.1672,4.1671,0,0,4.1146,4.1181,4.1239,4.1274,4.1327,4.135,4.1364,4.1417,4.1435,4.1505,4.1509,4.1556,4.1643,4.1679,4.1708,4.179,4.179,4.1805,4.184,4.1884,4.1892,4.19,4.1931,4.1941,4.1812,4.1812,4.1812,0,4.1165,4.1246,4.1267,4.1325,4.1358,4.1365,4.1423,4.1456,4.1522,4.1545,4.1531,4.1643,4.1676,4.1761,4.1781,4.1804,4.1821,4.1799,4.189,4.1898,4.1906,4.1935,4.1946,4.1814,4.1814,4.1813,4.1813,0,4.1267,4.1323,4.1363,4.1429,4.1467,4.1524,4.1554,4.159,4.16,4.1624,4.1696,4.1737,4.1796,4.1817,4.1825,4.1903,4.1895,4.1885,4.186,4.1918,4.1946,4.1957,4.1816,4.1815,4.1815,4.1815,0,0,4.1337,4.1416,4.143,4.1461,4.1521,4.1564,4.1623,4.1682,4.1712,4.1758,4.1808,4.1883,4.1875,4.1909,4.1921,4.196,4.2024,4.1946,4.1947,4.196,4.2114,4.2121,4.2134,4.2024,4.2026,4.2028,4.211,0,4.141,4.1515,4.1537,4.1628,4.168,4.1688,4.1739,4.1782,4.1806,4.1854,4.1881,4.1934,4.1919,4.194,4.1978,4.2008,4.2055,4.2002,4.2071,4.2073,4.2059,4.2148,4.2156,4.2232,4.2121,4.2123,4.2124,0,4.1509,4.1559,4.1655,4.1711,4.1733,4.1779,4.1836,4.1881,4.193,4.1945,4.1984,4.1994,4.2055,4.2027,4.2112,4.2075,4.2105,4.2124,4.2127,4.2135,4.2103,4.2159,4.2256,4.2268,4.2142,4.214,4.2139,0,4.1552,4.1644,4.1714,4.174,4.1805,4.1837,4.1866,4.1913,4.1947,4.1997,4.202,4.2075,4.2106,4.2148,4.2173,4.215,4.2256,4.223,4.2271,4.2271,4.2293,4.2292,4.2397,4.2311,4.2311,4.2311,4.231,0,4.1632,4.1691,4.1734,4.1777,4.1844,4.1869,4.1934,4.1962,4.2004,4.2053,4.2063,4.2108,4.2137,4.2187,4.2206,4.2275,4.2288,4.2302,4.2307,4.2302,4.2301,4.2322,4.2318,4.2314,4.2313,4.2312,4.2312,0,4.1692,4.1723,4.18,4.1857,4.1872,4.1919,4.1967,4.201,4.2035,4.2097,4.2113,4.2153,4.2212,4.2241,4.2313,4.2327,4.2404,4.2405,4.2389,4.2391,4.2431,4.2427,4.2554,4.2573,4.2473,4.2474,4.2475,0,4.1741,4.1787,4.1849,4.1883,4.1913,4.1967,4.2004,4.2031,4.2068,4.2128,4.2163,4.2223,4.2273,4.2367,4.2402,4.2458,4.2461,4.2502,4.2469,4.2464,4.2463,4.2461,4.2466,4.2507,4.2508,4.2509,4.251,0,4.1825,4.1839,4.1892,4.195,4.1994,4.2041,4.2087,4.2114,4.2148,4.2189,4.2251,4.229,4.2366,4.2425,4.2485,4.2514,4.2518,4.252,4.2533,4.2529,4.2518,4.2526,4.2406,4.2517,4.2516,4.2516,4.2515,4.2515,4.1882,4.1924,4.1975,4.2034,4.2072,4.2115,4.2159,4.2191,4.2243,4.2308,4.232,4.2386,4.2434,4.2515,4.2546,4.2598,4.2589,4.2607,4.2611,4.2616,4.2619,4.2509,4.2608,4.2608,4.2608,4.2608,4.2608,0,4.1969,4.2002,4.2056,4.2122,4.2168,4.2169,4.2221,4.2259,4.2318,4.2363,4.2413,4.2484,4.2543,4.2583,4.2643,4.2677,4.268,4.2691,4.269,4.2697,4.2623,4.2606,4.2688,4.2688,4.2688,4.2688,4.2688,4.2688,4.2019,4.2091,4.2111,4.2202,4.2235,4.2301,4.233,4.2371,4.2408,4.2488,4.2537,4.2564,4.2608,4.2671,4.2725,4.2735,4.2757,4.2769,4.2779,4.271,4.2701,4.2693,4.2678,4.2773,4.2773,4.2849,4.285,4.285]}]]